[[{"header":{"parameterUnit":"m.s-1","parameterCategory":1,"la1":30.2991,"la2":30.254,"lo1":-89.0895,"lo2":-89.0444,"dy":0.0017,"dx":0.0017,"nx":28,"ny":28,"refTime":"2024-07-31T03:00:00:Z","depth":0,"parameterNumber":2,"parameterNumberName":"U-component_of_WINDS"},"data":[0,0,0,0,0,0,0,0,0,0,0,0,0,0,0,0,0,0,0,0,0,0,0,0,0,0,0,0,0,0,0,0,0,0,0,0,0,0,0,0,0,0,0,0,0,0,0,0,0,0,0,0,0,0,0,0,0,0,2.1313,2.1313,0,2.1336,2.1336,2.1337,2.1314,2.1313,2.1312,2.1311,2.1335,2.1337,2.1338,0,0,0,0,0,0,0,0,0,0,0,0,0,2.125,2.1251,2.1313,2.1313,2.1313,2.1336,2.1337,2.1337,2.1314,2.1313,2.1312,2.1311,2.1335,2.1337,2.1338,0,0,0,0,0,0,0,0,0,0,0,0,0,2.1276,2.1251,2.1313,2.1305,2.1304,2.1336,2.1337,2.1337,2.1314,2.1313,2.1311,2.131,2.1334,2.1336,2.1339,2.138,0,0,2.1345,2.1346,0,0,0,0,0,0,0,0,2.1274,2.1278,2.1305,2.1305,2.1305,2.1321,2.1323,2.1351,2.1314,2.131,2.1311,2.1309,2.1332,2.1334,2.1341,2.1381,2.1382,2.1346,2.1347,2.1348,2.1349,0,0,0,0,0,0,0,2.1272,2.1277,2.1322,2.1306,2.1305,2.13,2.1303,2.1328,2.1328,2.1311,2.1309,2.1312,2.1331,2.1339,2.1342,2.1382,2.1346,2.1348,2.1349,2.135,2.1459,2.1461,0,0,0,0,0,0,2.1271,2.1275,2.1321,2.1323,2.1286,2.1303,2.1305,2.1317,2.1328,2.1328,2.1313,2.1311,2.1336,2.1339,2.1342,2.1392,2.1348,2.135,2.1351,2.1458,2.1459,2.1461,0,0,0,0,0,0,2.127,2.1276,2.132,2.1299,2.1304,2.1305,2.1319,2.1318,2.1326,2.133,2.133,2.1321,2.1335,2.1339,2.1371,2.1393,2.1351,2.1353,2.1456,2.1458,2.146,2.1492,0,0,0,0,0,0,2.1268,2.1275,2.129,2.1299,2.1305,2.1348,2.132,2.132,2.133,2.1327,2.1338,2.1338,2.1334,2.1368,2.1373,2.1395,2.1355,2.1454,2.1457,2.146,2.1489,2.1495,2.15,0,0,0,0,0,2.1266,2.1298,2.1291,2.1297,2.1324,2.1349,2.1353,2.1348,2.1332,2.1347,2.135,2.1338,2.139,2.1371,2.1377,2.14,2.1452,2.1456,2.1459,2.1486,2.1494,2.15,0,0,0,0,0,0,2.1291,2.1299,2.1291,2.1327,2.1338,2.1345,2.1364,2.1356,2.1371,2.1368,2.1361,2.1364,2.1398,2.1402,2.1381,2.1442,2.1419,2.1423,2.1437,2.1444,2.145,2.1448,2.1357,0,0,0,0,0,2.1301,2.132,2.1326,2.1357,2.1363,2.1363,2.1374,2.1369,2.138,2.1385,2.139,2.1401,2.142,2.1432,2.145,2.149,2.1493,2.1509,2.1515,2.1519,2.1523,2.1546,2.1554,2.1473,2.1473,2.1473,0,0,2.132,2.1327,2.134,2.1362,2.137,2.1391,2.1367,2.139,2.1405,2.1388,2.1418,2.1423,2.1435,2.1472,2.1488,2.1476,2.1547,2.1524,2.1527,2.1529,2.1551,2.1558,2.1565,2.1475,2.1475,2.1474,0,0,2.1368,2.1375,2.1402,2.141,2.1423,2.1423,2.143,2.144,2.1442,2.1473,2.146,2.148,2.1512,2.1522,2.1531,2.1585,2.1574,2.1591,2.1621,2.1643,2.1649,2.1655,2.1675,2.1682,2.1595,2.1596,2.1596,0,2.1391,2.1421,2.1417,2.1441,2.1452,2.1438,2.1466,2.1475,2.1492,2.15,2.1488,2.153,2.1537,2.1576,2.1589,2.1597,2.1605,2.1589,2.1649,2.1654,2.166,2.1678,2.1686,2.1597,2.1597,2.1597,2.1597,0,2.145,2.1472,2.1492,2.151,2.1524,2.155,2.1549,2.1564,2.1559,2.1561,2.1593,2.1602,2.1622,2.1631,2.1626,2.167,2.1663,2.165,2.1626,2.1669,2.1687,2.1694,2.16,2.16,2.1599,2.1598,0,0,2.1511,2.1528,2.1535,2.1544,2.1558,2.1575,2.1602,2.1622,2.1634,2.1648,2.167,2.1699,2.1688,2.1699,2.1695,2.1715,2.1758,2.1699,2.17,2.171,2.1808,2.1818,2.1826,2.1752,2.1753,2.1754,2.1807,0,2.1559,2.1604,2.1602,2.1644,2.1665,2.1654,2.1677,2.1689,2.1692,2.1711,2.1715,2.1736,2.1719,2.1725,2.1744,2.1749,2.1778,2.1745,2.1773,2.1774,2.1769,2.1835,2.1845,2.1895,2.1814,2.1815,2.1816,0,2.162,2.1636,2.1681,2.1694,2.1703,2.1724,2.1743,2.1761,2.1774,2.1776,2.1789,2.1783,2.181,2.1787,2.1826,2.1804,2.1815,2.182,2.1822,2.1823,2.1797,2.1839,2.1911,2.1918,2.1827,2.1826,2.1825,0,2.1661,2.1694,2.1726,2.1734,2.1749,2.1764,2.1772,2.1784,2.1797,2.1814,2.1822,2.1842,2.1853,2.1869,2.1869,2.1852,2.1909,2.1885,2.1911,2.1911,2.1922,2.1922,2.1997,2.1931,2.1931,2.1931,2.193,0,2.1714,2.1742,2.1745,2.1764,2.1796,2.1793,2.1825,2.1831,2.1843,2.1864,2.1855,2.1875,2.1874,2.1895,2.1895,2.1928,2.1933,2.1935,2.1935,2.1935,2.1935,2.1942,2.1939,2.1932,2.1932,2.1932,2.1931,0,2.1764,2.1767,2.1801,2.1813,2.1817,2.184,2.1851,2.187,2.1874,2.1901,2.1907,2.1913,2.1937,2.1939,2.1966,2.1967,2.2006,2.2002,2.2002,2.2001,2.2026,2.2024,2.2108,2.212,2.2047,2.2047,2.2048,0,2.1798,2.1819,2.1835,2.1848,2.1857,2.1879,2.1892,2.1892,2.1906,2.1925,2.1942,2.1965,2.1984,2.2023,2.203,2.2052,2.2048,2.2076,2.2051,2.2052,2.2049,2.2047,2.205,2.2081,2.2082,2.2082,2.2083,0,2.1857,2.1858,2.1878,2.1899,2.1915,2.1931,2.1946,2.1958,2.196,2.1977,2.2002,2.2016,2.2045,2.2069,2.2091,2.2099,2.2092,2.2091,2.2098,2.2099,2.2098,2.2099,2.2015,2.2089,2.2088,2.2088,2.2087,2.2087,2.19,2.1919,2.1934,2.1956,2.1968,2.1983,2.2002,2.2009,2.2029,2.2053,2.2052,2.208,2.2095,2.2124,2.2134,2.2156,2.2146,2.2156,2.2159,2.2161,2.2164,2.2095,2.216,2.216,2.2159,2.2159,2.2159,0,2.1959,2.1969,2.199,2.2012,2.203,2.2023,2.204,2.2055,2.208,2.2095,2.2114,2.2143,2.2167,2.2177,2.22,2.2216,2.2213,2.2222,2.2221,2.2223,2.2171,2.2163,2.2224,2.2224,2.2224,2.2224,2.2224,2.2224,2.1992,2.2025,2.2028,2.2067,2.2076,2.2103,2.2114,2.2128,2.214,2.2173,2.2193,2.2199,2.2213,2.2237,2.2259,2.2261,2.227,2.2281,2.2282,2.2233,2.2226,2.222,2.2212,2.2283,2.2283,2.2331,2.2332,2.2332]},{"header":{"parameterUnit":"m.s-1","parameterCategory":1,"la1":30.2991,"la2":30.254,"lo1":-89.0895,"lo2":-89.0444,"dy":0.0017,"dx":0.0017,"nx":28,"ny":28,"refTime":"2024-07-31T03:00:00:Z","depth":0,"parameterNumber":3,"parameterNumberName":"V-component_of_WINDS"},"data":[0,0,0,0,0,0,0,0,0,0,0,0,0,0,0,0,0,0,0,0,0,0,0,0,0,0,0,0,0,0,0,0,0,0,0,0,0,0,0,0,0,0,0,0,0,0,0,0,0,0,0,0,0,0,0,0,0,0,-0.8535,-0.8535,0,-0.8507,-0.8506,-0.8506,-0.8481,-0.8481,-0.8481,-0.8481,-0.8451,-0.8451,-0.845,0,0,0,0,0,0,0,0,0,0,0,0,0,-0.857,-0.8569,-0.8535,-0.8535,-0.8535,-0.8507,-0.8506,-0.8506,-0.8482,-0.8481,-0.8481,-0.8481,-0.8452,-0.8451,-0.845,0,0,0,0,0,0,0,0,0,0,0,0,0,-0.8549,-0.8569,-0.8535,-0.8519,-0.8517,-0.8507,-0.8506,-0.8506,-0.8482,-0.8481,-0.8481,-0.848,-0.8452,-0.8451,-0.845,-0.8454,0,0,-0.8448,-0.8448,0,0,0,0,0,0,0,0,-0.8551,-0.8548,-0.8522,-0.852,-0.8518,-0.8497,-0.8508,-0.8488,-0.8482,-0.8495,-0.8481,-0.848,-0.8467,-0.8465,-0.8461,-0.8452,-0.8451,-0.8448,-0.8447,-0.8447,-0.8447,0,0,0,0,0,0,0,-0.8552,-0.8549,-0.8524,-0.8521,-0.8519,-0.8514,-0.851,-0.8504,-0.8484,-0.8494,-0.8492,-0.8489,-0.8466,-0.8461,-0.846,-0.8451,-0.8448,-0.8447,-0.8447,-0.8446,-0.8447,-0.8447,0,0,0,0,0,0,-0.8556,-0.8551,-0.8525,-0.8523,-0.8534,-0.8513,-0.851,-0.8504,-0.8484,-0.848,-0.8489,-0.8488,-0.8463,-0.8461,-0.8459,-0.8463,-0.8447,-0.8446,-0.8446,-0.8446,-0.8447,-0.8447,0,0,0,0,0,0,-0.8557,-0.8554,-0.8526,-0.8536,-0.8532,-0.8513,-0.8508,-0.8504,-0.8499,-0.848,-0.8477,-0.8488,-0.8462,-0.846,-0.8456,-0.8461,-0.8446,-0.8445,-0.8446,-0.8446,-0.8447,-0.8471,0,0,0,0,0,0,-0.8558,-0.8554,-0.8555,-0.8537,-0.8532,-0.8523,-0.8508,-0.8504,-0.8498,-0.8496,-0.8478,-0.8475,-0.8462,-0.8457,-0.8455,-0.846,-0.8445,-0.8445,-0.8446,-0.8447,-0.8469,-0.8472,-0.8475,0,0,0,0,0,-0.8559,-0.8562,-0.8555,-0.8552,-0.8532,-0.8524,-0.8521,-0.8506,-0.8499,-0.85,-0.8488,-0.8476,-0.8461,-0.8457,-0.8454,-0.8459,-0.8445,-0.8446,-0.8447,-0.8468,-0.8472,-0.8475,0,0,0,0,0,0,-0.8581,-0.8559,-0.8551,-0.8548,-0.8538,-0.8519,-0.852,-0.851,-0.8501,-0.8499,-0.8481,-0.8477,-0.8476,-0.8467,-0.8463,-0.8463,-0.8452,-0.8452,-0.8469,-0.8472,-0.8474,-0.8477,-0.8444,0,0,0,0,0,-0.8585,-0.858,-0.8561,-0.8561,-0.8556,-0.8539,-0.8535,-0.8524,-0.8513,-0.8508,-0.8496,-0.8486,-0.8479,-0.8475,-0.8467,-0.8468,-0.8465,-0.8471,-0.8473,-0.8475,-0.8476,-0.8478,-0.8481,-0.8451,-0.8451,-0.8451,0,0,-0.8594,-0.8582,-0.8579,-0.8565,-0.8556,-0.8551,-0.8535,-0.8531,-0.8527,-0.8507,-0.8503,-0.8494,-0.8482,-0.8481,-0.848,-0.8473,-0.8484,-0.8477,-0.8479,-0.8478,-0.848,-0.8482,-0.8485,-0.8452,-0.8452,-0.8451,0,0,-0.8609,-0.8598,-0.8597,-0.8589,-0.8576,-0.8565,-0.8565,-0.8548,-0.8542,-0.8538,-0.8523,-0.8519,-0.8508,-0.85,-0.8494,-0.8509,-0.8498,-0.8507,-0.8521,-0.8523,-0.8525,-0.8527,-0.8534,-0.8536,-0.8508,-0.8508,-0.8508,0,-0.8622,-0.8614,-0.8598,-0.8595,-0.859,-0.8572,-0.8572,-0.8565,-0.855,-0.8547,-0.854,-0.8527,-0.8517,-0.8515,-0.8519,-0.8514,-0.8515,-0.8509,-0.8526,-0.8528,-0.853,-0.8536,-0.8538,-0.8509,-0.8509,-0.8509,-0.8509,0,-0.8631,-0.8626,-0.8627,-0.8614,-0.8609,-0.8607,-0.8592,-0.8589,-0.858,-0.857,-0.8567,-0.8555,-0.8546,-0.8545,-0.8535,-0.8542,-0.8539,-0.8529,-0.8518,-0.8534,-0.854,-0.8542,-0.8511,-0.8511,-0.851,-0.851,0,0,-0.8657,-0.8637,-0.8638,-0.8632,-0.8618,-0.8614,-0.8612,-0.8604,-0.8602,-0.8593,-0.8592,-0.8584,-0.8576,-0.857,-0.8559,-0.8561,-0.8576,-0.8552,-0.8551,-0.8558,-0.8585,-0.8593,-0.8596,-0.8569,-0.8569,-0.8569,-0.8586,0,-0.8669,-0.8665,-0.8652,-0.8652,-0.8649,-0.8634,-0.8632,-0.8624,-0.8615,-0.8612,-0.8602,-0.8597,-0.8586,-0.8583,-0.8584,-0.8574,-0.8581,-0.8572,-0.8568,-0.8568,-0.8573,-0.8598,-0.8606,-0.8622,-0.8588,-0.8589,-0.8589,0,-0.8683,-0.8676,-0.8676,-0.8664,-0.8662,-0.8661,-0.8654,-0.865,-0.8641,-0.8634,-0.8629,-0.8618,-0.8617,-0.8606,-0.8605,-0.8599,-0.8597,-0.8592,-0.8592,-0.8592,-0.858,-0.8599,-0.8627,-0.863,-0.8592,-0.8592,-0.8591,0,-0.8703,-0.8694,-0.8693,-0.8689,-0.8674,-0.8675,-0.8668,-0.8659,-0.8655,-0.8649,-0.8647,-0.8641,-0.8637,-0.8633,-0.8621,-0.8614,-0.8622,-0.861,-0.8618,-0.8618,-0.862,-0.862,-0.8649,-0.8618,-0.8618,-0.8618,-0.8618,0,-0.8719,-0.872,-0.8702,-0.8702,-0.8703,-0.8689,-0.8691,-0.8684,-0.8676,-0.8675,-0.8661,-0.866,-0.8644,-0.8642,-0.8632,-0.8634,-0.8632,-0.8628,-0.8626,-0.863,-0.863,-0.8628,-0.8627,-0.8618,-0.8618,-0.8618,-0.8618,0,-0.8741,-0.8729,-0.8728,-0.8715,-0.8712,-0.8714,-0.8703,-0.8703,-0.8694,-0.8693,-0.8692,-0.8679,-0.8675,-0.8663,-0.8657,-0.8651,-0.8656,-0.8651,-0.8659,-0.8658,-0.8667,-0.8667,-0.8696,-0.87,-0.8665,-0.8666,-0.8666,0,-0.8752,-0.8753,-0.874,-0.8739,-0.8734,-0.8731,-0.8728,-0.8715,-0.8713,-0.8704,-0.8705,-0.8701,-0.8697,-0.8693,-0.8683,-0.8679,-0.8674,-0.8685,-0.8674,-0.8678,-0.8676,-0.8676,-0.8677,-0.8688,-0.8688,-0.8688,-0.8689,0,-0.8773,-0.8768,-0.8764,-0.8759,-0.8756,-0.8752,-0.8746,-0.8746,-0.8731,-0.873,-0.8727,-0.8724,-0.8719,-0.8716,-0.871,-0.8705,-0.8695,-0.8693,-0.8694,-0.8699,-0.8704,-0.8703,-0.8667,-0.8692,-0.8691,-0.8691,-0.8691,-0.8691,-0.879,-0.8791,-0.8784,-0.8781,-0.8776,-0.8771,-0.8771,-0.8764,-0.8761,-0.8756,-0.8749,-0.8747,-0.874,-0.8732,-0.8728,-0.8727,-0.8721,-0.8724,-0.8724,-0.8725,-0.8728,-0.8704,-0.8726,-0.8726,-0.8726,-0.8726,-0.8726,0,-0.8812,-0.8807,-0.8804,-0.8798,-0.8796,-0.8788,-0.8782,-0.8781,-0.878,-0.8775,-0.8772,-0.877,-0.8767,-0.8758,-0.8755,-0.8757,-0.8752,-0.8756,-0.8756,-0.8756,-0.8733,-0.8732,-0.876,-0.876,-0.876,-0.876,-0.876,-0.876,-0.8823,-0.8824,-0.8819,-0.8818,-0.8813,-0.8812,-0.881,-0.8807,-0.8803,-0.8801,-0.8799,-0.8794,-0.8787,-0.8784,-0.8782,-0.878,-0.878,-0.8785,-0.8782,-0.876,-0.8757,-0.8754,-0.8753,-0.8785,-0.8785,-0.8805,-0.8805,-0.8805]}]]